[[{"header":{"parameterUnit":"m.s-1","parameterCategory":1,"la1":30.2991,"la2":30.254,"lo1":-89.0895,"lo2":-89.0444,"dy":0.0017,"dx":0.0017,"nx":28,"ny":28,"refTime":"2023-06-26T21:00:00:Z","depth":0,"parameterNumber":2,"parameterNumberName":"U-component_of_WINDS"},"data":[0,0,0,0,0,0,0,0,0,0,0,0,0,0,0,0,0,0,0,0,0,0,0,0,0,0,0,0,0,0,0,0,0,0,0,0,0,0,0,0,0,0,0,0,0,0,0,0,0,0,0,0,0,0,0,0,0,0,2.2679,2.2679,0,2.2704,2.2705,2.2705,2.2629,2.2627,2.2624,2.2622,2.2654,2.2657,2.266,0,0,0,0,0,0,0,0,0,0,0,0,0,2.2572,2.2574,2.2679,2.2679,2.268,2.2704,2.2705,2.2705,2.2629,2.2626,2.2624,2.2621,2.2653,2.2657,2.266,0,0,0,0,0,0,0,0,0,0,0,0,0,2.261,2.2575,2.2679,2.2645,2.2642,2.2704,2.2705,2.2705,2.263,2.2626,2.2623,2.262,2.2652,2.2656,2.2661,2.2759,0,0,2.2675,2.2677,0,0,0,0,0,0,0,0,2.2608,2.2614,2.2649,2.2647,2.2644,2.266,2.2678,2.2723,2.2631,2.2635,2.2622,2.2618,2.2659,2.2663,2.2676,2.2761,2.2762,2.2675,2.2678,2.268,2.2681,0,0,0,0,0,0,0,2.2605,2.2612,2.2689,2.265,2.2647,2.263,2.2632,2.2687,2.2667,2.2634,2.2629,2.2632,2.2657,2.2671,2.2676,2.2763,2.2675,2.2679,2.2682,2.2684,2.2933,2.2936,0,0,0,0,0,0,2.2606,2.2611,2.2688,2.269,2.2617,2.2635,2.2637,2.2658,2.2666,2.2663,2.2635,2.2629,2.2665,2.2671,2.2677,2.2795,2.268,2.2684,2.2687,2.2929,2.2933,2.2938,0,0,0,0,0,0,2.2604,2.2614,2.2687,2.2649,2.2657,2.264,2.2666,2.2661,2.2675,2.2666,2.2663,2.2653,2.2663,2.267,2.2739,2.2795,2.2686,2.269,2.2924,2.293,2.2936,2.303,0,0,0,0,0,0,2.2601,2.2614,2.2649,2.265,2.2659,2.2748,2.2669,2.2664,2.2682,2.2674,2.2682,2.2681,2.2661,2.2733,2.2744,2.2799,2.2694,2.2919,2.2927,2.2934,2.3022,2.3039,2.3053,0,0,0,0,0,2.2598,2.2676,2.2651,2.2661,2.2703,2.2751,2.2757,2.273,2.2687,2.2724,2.2719,2.268,2.2786,2.2741,2.2752,2.281,2.2916,2.2925,2.2933,2.3016,2.3036,2.3052,0,0,0,0,0,0,2.2684,2.2675,2.2648,2.2728,2.2741,2.2738,2.2784,2.2752,2.2779,2.277,2.2738,2.2741,2.2817,2.282,2.2769,2.2907,2.2844,2.2855,2.2902,2.2921,2.2936,2.2936,2.2698,0,0,0,0,0,2.2712,2.275,2.2741,2.2812,2.282,2.2801,2.2821,2.28,2.2812,2.2818,2.2818,2.2833,2.287,2.2895,2.2929,2.3021,2.3024,2.3067,2.3082,2.3094,2.3106,2.3158,2.3178,2.2966,2.2966,2.2966,0,0,2.2771,2.2771,2.2797,2.283,2.2837,2.2879,2.2806,2.2854,2.2886,2.2826,2.2891,2.2892,2.2907,2.2989,2.3025,2.2994,2.3164,2.3105,2.3115,2.312,2.3169,2.3189,2.3207,2.2972,2.2971,2.297,0,0,2.2901,2.2903,2.2964,2.2972,2.2983,2.2971,2.2985,2.2988,2.2985,2.305,2.3007,2.3045,2.3108,2.3122,2.3137,2.3272,2.3239,2.3284,2.3365,2.3416,2.3433,2.3447,2.3499,2.3517,2.3294,2.3295,2.3295,0,2.2973,2.3033,2.3,2.3051,2.3068,2.3013,2.3076,2.3087,2.3109,2.3124,2.3087,2.3167,2.3173,2.3259,2.3292,2.3305,2.3323,2.3284,2.3432,2.3447,2.346,2.3509,2.3528,2.33,2.33,2.3299,2.3299,0,2.3124,2.3166,2.3214,2.3236,2.3258,2.3315,2.3293,2.3319,2.3296,2.3287,2.3356,2.3361,2.3395,2.3413,2.3391,2.3497,2.3478,2.3437,2.3374,2.3487,2.3532,2.355,2.3308,2.3306,2.3305,2.3303,0,0,2.3311,2.3312,2.3331,2.3341,2.3349,2.3383,2.3438,2.347,2.3495,2.3512,2.356,2.3615,2.3578,2.3595,2.3574,2.3618,2.3729,2.3573,2.3573,2.3605,2.385,2.3883,2.3905,2.3706,2.3709,2.3712,2.385,0,2.3441,2.3533,2.3505,2.36,2.3641,2.3589,2.3638,2.3649,2.3643,2.3678,2.3671,2.3712,2.3658,2.3669,2.371,2.3707,2.3779,2.3696,2.3753,2.3756,2.3754,2.3928,2.3962,2.4092,2.3867,2.387,2.3872,0,2.3605,2.3628,2.3727,2.3729,2.3745,2.3789,2.3817,2.385,2.3863,2.3856,2.3875,2.3845,2.3902,2.3836,2.3916,2.3861,2.3882,2.3884,2.3888,2.3896,2.3823,2.3943,2.4133,2.4154,2.3899,2.3897,2.3895,0,2.3736,2.3791,2.3857,2.3867,2.3871,2.3904,2.3908,2.3917,2.3938,2.3963,2.3977,2.4009,2.4027,2.4054,2.4034,2.3987,2.4119,2.405,2.4117,2.4118,2.415,2.4149,2.4349,2.4158,2.4158,2.4157,2.4157,0,2.3887,2.395,2.3916,2.3958,2.4028,2.3995,2.4066,2.4064,2.4073,2.4115,2.4072,2.4113,2.4082,2.4121,2.4106,2.4177,2.4185,2.4182,2.4178,2.4188,2.4189,2.4205,2.4197,2.4162,2.4161,2.416,2.4159,0,2.4046,2.4026,2.4095,2.4093,2.4094,2.4146,2.4145,2.4185,2.4174,2.4228,2.4239,2.4224,2.4268,2.425,2.4296,2.4286,2.4378,2.436,2.4373,2.437,2.4439,2.4435,2.466,2.4689,2.4476,2.4478,2.4479,0,2.4146,2.4193,2.4195,2.4219,2.4225,2.4265,2.4286,2.4256,2.428,2.4299,2.4338,2.4377,2.4407,2.448,2.4475,2.4511,2.4496,2.4572,2.4501,2.4511,2.4501,2.45,2.4506,2.4588,2.459,2.4592,2.4594,0,2.4325,2.4313,2.4344,2.4373,2.4399,2.442,2.4438,2.4461,2.4432,2.4462,2.4505,2.4528,2.4575,2.4616,2.4648,2.4654,2.4621,2.4615,2.4634,2.4646,2.4653,2.4654,2.4416,2.4611,2.461,2.4608,2.4607,2.4607,2.446,2.45,2.4509,2.4546,2.4555,2.4573,2.4611,2.4605,2.4639,2.4674,2.4654,2.4706,2.4719,2.4758,2.4769,2.4811,2.4781,2.4806,2.4813,2.4821,2.4832,2.4644,2.4816,2.4815,2.4815,2.4814,2.4814,0,2.4641,2.4643,2.4677,2.4703,2.4733,2.4694,2.4713,2.4741,2.4786,2.48,2.483,2.4881,2.4921,2.4918,2.4955,2.499,2.4975,2.5001,2.5,2.5003,2.4854,2.4837,2.5012,2.5012,2.5012,2.5012,2.5012,2.5011,2.4738,2.4806,2.4794,2.4867,2.4869,2.4917,2.4932,2.4949,2.496,2.5018,2.505,2.5047,2.5056,2.5093,2.5128,2.5127,2.5144,2.5176,2.517,2.5032,2.5013,2.4994,2.4977,2.5179,2.5179,2.5315,2.5316,2.5317]},{"header":{"parameterUnit":"m.s-1","parameterCategory":1,"la1":30.2991,"la2":30.254,"lo1":-89.0895,"lo2":-89.0444,"dy":0.0017,"dx":0.0017,"nx":28,"ny":28,"refTime":"2023-06-26T21:00:00:Z","depth":0,"parameterNumber":3,"parameterNumberName":"V-component_of_WINDS"},"data":[0,0,0,0,0,0,0,0,0,0,0,0,0,0,0,0,0,0,0,0,0,0,0,0,0,0,0,0,0,0,0,0,0,0,0,0,0,0,0,0,0,0,0,0,0,0,0,0,0,0,0,0,0,0,0,0,0,0,0.2268,0.2267,0,0.2222,0.2222,0.2221,0.2194,0.2194,0.2194,0.2194,0.2145,0.2144,0.2143,0,0,0,0,0,0,0,0,0,0,0,0,0,0.2329,0.2328,0.2268,0.2267,0.2267,0.2222,0.2222,0.2221,0.2194,0.2194,0.2194,0.2193,0.2146,0.2144,0.2143,0,0,0,0,0,0,0,0,0,0,0,0,0,0.2295,0.2327,0.2268,0.2248,0.2245,0.2223,0.2222,0.2221,0.2194,0.2194,0.2194,0.2193,0.2146,0.2145,0.2143,0.2136,0,0,0.2138,0.2137,0,0,0,0,0,0,0,0,0.2297,0.2292,0.2251,0.2249,0.2246,0.2214,0.2226,0.2192,0.2194,0.2213,0.2194,0.2193,0.2168,0.2165,0.2156,0.2134,0.2132,0.2137,0.2136,0.2136,0.2135,0,0,0,0,0,0,0,0.2299,0.2294,0.225,0.2251,0.2248,0.224,0.2235,0.2219,0.2192,0.2212,0.221,0.2205,0.2167,0.2158,0.2155,0.2131,0.2137,0.2136,0.2135,0.2134,0.2099,0.2099,0,0,0,0,0,0,0.2305,0.2296,0.2251,0.2248,0.2272,0.2239,0.2234,0.2224,0.2192,0.2187,0.2205,0.2204,0.2161,0.2157,0.2153,0.2142,0.2136,0.2134,0.2133,0.2099,0.2099,0.2099,0,0,0,0,0,0,0.2306,0.2301,0.2253,0.2272,0.2265,0.2238,0.2228,0.2224,0.2215,0.2187,0.2182,0.2201,0.2161,0.2156,0.214,0.214,0.2133,0.2132,0.2099,0.2099,0.2099,0.2121,0,0,0,0,0,0,0.2308,0.2302,0.2299,0.2272,0.2264,0.2241,0.2228,0.2223,0.2212,0.221,0.2183,0.2178,0.216,0.2143,0.2139,0.2138,0.213,0.2098,0.2099,0.2099,0.212,0.2122,0.2123,0,0,0,0,0,0.231,0.2307,0.2299,0.2294,0.2261,0.2241,0.2237,0.2218,0.2212,0.2209,0.2191,0.2179,0.2141,0.2142,0.2136,0.2135,0.2098,0.2099,0.2099,0.2119,0.2121,0.2123,0,0,0,0,0,0,0.2335,0.2303,0.2294,0.2282,0.2265,0.2237,0.2233,0.2221,0.2204,0.2202,0.2179,0.2173,0.2159,0.2146,0.2147,0.2126,0.2118,0.2117,0.2135,0.2137,0.2139,0.2142,0.2129,0,0,0,0,0,0.2339,0.2327,0.2299,0.2291,0.2283,0.2259,0.225,0.2237,0.2218,0.221,0.2191,0.2172,0.2156,0.2146,0.213,0.2118,0.2111,0.2114,0.2116,0.2117,0.2117,0.2108,0.2109,0.21,0.21,0.21,0,0,0.2347,0.2328,0.2322,0.2296,0.2281,0.2268,0.2253,0.224,0.223,0.2208,0.2192,0.2177,0.2155,0.2141,0.2134,0.2129,0.2118,0.2118,0.2119,0.2118,0.2109,0.211,0.2111,0.21,0.21,0.21,0,0,0.2355,0.234,0.2331,0.2316,0.2294,0.2278,0.2276,0.225,0.2239,0.2223,0.2206,0.2193,0.2166,0.215,0.2139,0.2141,0.2128,0.2136,0.2144,0.2136,0.2137,0.2138,0.2137,0.2138,0.2135,0.2135,0.2136,0,0.2368,0.2348,0.2328,0.2316,0.2305,0.2284,0.2274,0.2261,0.2234,0.2226,0.2222,0.2187,0.217,0.2152,0.2152,0.2144,0.214,0.2139,0.2139,0.2139,0.2139,0.2139,0.2139,0.2137,0.2136,0.2136,0.2136,0,0.2364,0.2351,0.2346,0.2321,0.2309,0.2299,0.2276,0.2267,0.2254,0.2239,0.2222,0.2201,0.218,0.2175,0.2162,0.2154,0.2152,0.2143,0.2135,0.2142,0.2141,0.214,0.2138,0.2138,0.2137,0.2137,0,0,0.2387,0.235,0.2349,0.2337,0.231,0.2299,0.2287,0.2267,0.2258,0.224,0.2229,0.2206,0.2198,0.2185,0.2171,0.2164,0.2165,0.2156,0.2155,0.2158,0.2154,0.2161,0.2161,0.2157,0.2157,0.2157,0.2156,0,0.239,0.2368,0.2349,0.2334,0.232,0.2301,0.229,0.2272,0.2257,0.2243,0.2226,0.221,0.2201,0.2193,0.2185,0.2167,0.2164,0.2167,0.2145,0.2145,0.2151,0.216,0.2167,0.2167,0.2155,0.2155,0.2155,0,0.2391,0.2374,0.2358,0.2332,0.2325,0.2316,0.2296,0.2283,0.2262,0.2251,0.2237,0.2221,0.2207,0.22,0.2179,0.2181,0.2171,0.2161,0.216,0.2157,0.215,0.2157,0.2167,0.2167,0.2155,0.2155,0.2155,0,0.2408,0.2381,0.2367,0.2358,0.2328,0.2321,0.2308,0.2287,0.2276,0.2258,0.225,0.223,0.2219,0.2204,0.2183,0.2181,0.2164,0.2156,0.2154,0.2155,0.2151,0.2152,0.2159,0.2146,0.2146,0.2146,0.2146,0,0.2414,0.2404,0.2374,0.2366,0.2354,0.2333,0.2321,0.2306,0.2288,0.2275,0.2257,0.2245,0.2219,0.2205,0.2189,0.2173,0.2168,0.2159,0.2154,0.216,0.2161,0.2153,0.2152,0.2146,0.2146,0.2146,0.2146,0,0.243,0.241,0.2394,0.2367,0.2359,0.2352,0.2328,0.2319,0.2303,0.2287,0.2282,0.2257,0.2238,0.2216,0.2191,0.218,0.2166,0.216,0.2173,0.217,0.2169,0.217,0.2172,0.217,0.2159,0.2159,0.2159,0,0.2435,0.2427,0.2399,0.2389,0.2377,0.2362,0.2351,0.2329,0.2317,0.2292,0.2286,0.2266,0.2249,0.222,0.2199,0.2179,0.2172,0.2174,0.2169,0.2175,0.2171,0.2172,0.217,0.2176,0.2176,0.2176,0.2176,0,0.2445,0.2435,0.242,0.24,0.2387,0.2371,0.2354,0.2347,0.2321,0.2309,0.229,0.2277,0.2251,0.2231,0.2209,0.2194,0.2181,0.2178,0.2176,0.2182,0.219,0.2185,0.2176,0.2178,0.2178,0.2178,0.2178,0.2177,0.2455,0.2447,0.2426,0.2408,0.2393,0.2378,0.2367,0.235,0.2334,0.2311,0.2299,0.2281,0.2259,0.2227,0.2213,0.2197,0.2193,0.2191,0.219,0.219,0.2191,0.2193,0.2193,0.2193,0.2193,0.2193,0.2193,0,0.2463,0.2449,0.2433,0.241,0.2396,0.2385,0.2366,0.2355,0.2339,0.232,0.2303,0.2281,0.2262,0.2239,0.2218,0.221,0.2203,0.2205,0.2205,0.2202,0.2197,0.22,0.2211,0.2211,0.2211,0.2211,0.2211,0.2211,0.2466,0.2451,0.2439,0.2416,0.2401,0.2383,0.2373,0.2358,0.2343,0.2319,0.2303,0.2289,0.2268,0.2245,0.2227,0.222,0.2213,0.2217,0.2209,0.2204,0.2202,0.2201,0.2204,0.2216,0.2216,0.2215,0.2215,0.2215]}]]